Weather History for Georgetown, DE

Change the Weather History Date:

Wednesday, May 1, 2013

  Actual Average Record
Temperature  
Mean Temperature 56 °F 58 °F  
Max Temperature 63 °F 69 °F 89 °F (2010)
Min Temperature 48 °F 48 °F 34 °F (1987)
Degree Days  
Heating Degree Days 9 8  
Month to date heating degree days 9 8  
Since 1 July heating degree days 4024 4268  
Cooling Degree Days 0 1  
Month to date cooling degree days 0 1  
Year to date cooling degree days 31 21  
Growing Degree Days 6 (Base 50)    
Moisture  
Dew Point 46 °F    
Average Humidity 68    
Maximum Humidity 93    
Minimum Humidity 43    
Precipitation  
Precipitation 0.00 in 0.08 in 0.99 in (1963)
Month to date precipitation 0.00 0.08  
Year to date precipitation 12.64 13.47  
Sea Level Pressure  
Sea Level Pressure 30.38 in    
Wind  
Wind Speed 11 mph (NE)    
Max Wind Speed 22 mph    
Max Gust Speed 26 mph    
Visibility 10 miles    
Events      
T = Trace of Precipitation, MM = Missing Value Source: NWS Daily Summary

Daily Weather History Graph

Daily Weather History Graph

Search for Another Location

Airport:

Trip Planner

Search our weather history database for the weather conditions in past years. The results will help you decide how hot, cold, wet, or windy it might be!

Date:

Astronomy

May. 01, 2013 Rise Set
Actual Time 6:03 AM EDT 7:53 PM EDT
Civil Twilight 5:35 AM EDT 8:22 PM EDT
Nautical Twilight 5:00 AM EDT 8:57 PM EDT
Astronomical Twilight 4:23 AM EDT 9:34 PM EDT
Moon 1:01 AM EDT (5/1) 11:39 AM EDT (5/1)
Length of Visible Light 14h 47m
Length of Day
13h 50m
Waning Gibbous, 59% of the Moon is Illuminated
May 1
Waning Gibbous
May 2
Last Quarter
May 9
New
May 18
First Quarter
May 25
Full

Hourly Weather History & Observations

Time (EDT) Temp. Dew Point Humidity Pressure Visibility Wind Dir Wind Speed Gust Speed Precip Events Conditions
12:54 AM 51.1 °F 46.9 °F 86% 30.28 in 10.0 mi NE 6.9 mph - N/A   Clear
1:54 AM 51.1 °F 46.9 °F 86% 30.28 in 10.0 mi NNE 8.1 mph - N/A   Clear
2:54 AM 48.0 °F 45.0 °F 89% 30.28 in 10.0 mi NE 5.8 mph - N/A   Clear
3:54 AM 48.0 °F 45.0 °F 89% 30.29 in 10.0 mi NE 6.9 mph - N/A   Clear
4:54 AM 48.9 °F 45.0 °F 86% 30.30 in 10.0 mi NNE 8.1 mph - N/A   Clear
5:54 AM 48.9 °F 45.0 °F 86% 30.31 in 10.0 mi NNE 6.9 mph - N/A   Clear
6:54 AM 50.0 °F 45.0 °F 83% 30.33 in 10.0 mi NE 5.8 mph - N/A   Clear
7:54 AM 54.0 °F 48.0 °F 80% 30.34 in 10.0 mi NE 12.7 mph - N/A   Clear
9:54 AM 59.0 °F 43.0 °F 55% 30.38 in 10.0 mi ENE 15.0 mph 21.9 mph N/A   Clear
10:54 AM 61.0 °F 41.0 °F 48% 30.40 in 10.0 mi NE 16.1 mph - N/A   Clear
12:54 PM 63.0 °F 39.9 °F 43% 30.40 in 10.0 mi ENE 12.7 mph 23.0 mph N/A   Clear
2:54 PM 60.1 °F 46.0 °F 60% 30.40 in 10.0 mi NE 16.1 mph 21.9 mph N/A   Clear
3:54 PM 57.9 °F 46.9 °F 67% 30.41 in 10.0 mi East 16.1 mph - N/A   Clear
4:54 PM 55.9 °F 46.9 °F 72% 30.42 in 10.0 mi ENE 6.9 mph 17.3 mph N/A   Clear
5:54 PM 54.0 °F 46.0 °F 75% 30.43 in 10.0 mi ENE 12.7 mph - N/A   Clear
6:33 PM 51.8 °F 46.4 °F 82% 30.43 in 10.0 mi East 8.1 mph - N/A   Mostly Cloudy
6:54 PM 52.0 °F 46.0 °F 80% 30.44 in 10.0 mi East 6.9 mph - N/A   Overcast
7:05 PM 51.8 °F 46.4 °F 82% 30.43 in 10.0 mi ENE 10.4 mph - N/A   Overcast
7:54 PM 51.1 °F 46.9 °F 86% 30.44 in 10.0 mi NE 11.5 mph - N/A   Overcast
8:54 PM 50.0 °F 46.0 °F 86% 30.45 in 10.0 mi ENE 8.1 mph - N/A   Overcast
9:54 PM 50.0 °F 46.0 °F 86% 30.44 in 10.0 mi ENE 8.1 mph - N/A   Overcast
10:54 PM 50.0 °F 46.9 °F 89% 30.44 in 10.0 mi ENE 9.2 mph - N/A   Overcast
11:54 PM 48.9 °F 46.0 °F 90% 30.43 in 10.0 mi ENE 9.2 mph - N/A   Overcast